阿斯特拉 3B星 (ASTRA 3B)

导读

ASTRA 3B是由SES公司运营的通信卫星,于2010年5月21日发射升空。该卫星定点于地球静止轨道23.5°E位置,主要为欧洲地区提供有线电视广播、宽带互联网接入和多媒体通信服务。它配备了高性能Ku波段和Ka波段转发器,信号覆盖中欧、东欧和北欧地区,支持高清和超高清电视信号传输,同时满足企业数据通信和个人宽带接入需求,目前已成为欧洲重要的广播电视基础设施之一。

基本信息
目录编号:
36581
目录名称:
ASTRA 3B
国际标识:
2010-021A
轨道中心:
EARTH
卫星名称:
阿斯特拉 3B星
卫星全名:
阿斯特拉 3B星 (ASTRA 3B)
卫星状态:
在轨 (已飞行5867 天)
发射日期:
2010-05-21 UTC
国别 :
(SES)
星等 :
--
轨道信息
数据来源 国际轨道数据 AOE轨道数据
星历时间 2026-06-12T14:28:03+0800
18小时前
查看轨道信息
2026-06-12T02:00:00+0800
1天前
查看轨道信息
半长轴 42165.625km 42163.971km
偏心率 0.0004122 0.0004059
轨道倾角 1.458° 1.456°
近地点辐角 0.198° 355.705°
升交点赤经 83.612° 83.617°
平近点角 297.315° 114.305°
近地点 35770.107km 35768.719km
远地点 35804.869km 35802.949km
周期 1436.143分钟 1436.058分钟
每日圈数 1.002686 1.002745
详细信息
卫星平台:
Eurostar E3000
平衡模式:
三轴稳定
覆盖范围:
全球
运营商:
欧洲卫星公司
运营商所在国:
卢森堡
制造商(研发单位):
空客防务与航天公司
制造商所在国:
法国大都会
使用方式:
暂无
卫星简介
阿斯特拉卫星是由SES阿斯特拉运营的商业通信卫星,主要提供电视直播到户业务。Astra卫星包括三个系列共19颗卫星,分别定点在三个不同轨位:Astra-1系列包括十三颗卫星,定点东经19.2度;Astra-2系列包括4颗卫星,定点东经28.2度;Astra-3系列包括2颗卫星,定点东经23.5度。该卫星仍在工作。
2D轨道图
3D轨道图
轨道高度分析图
轨道倾角分析图
轨道综合分析图
查看轨道综合分析图